| time (UTC) | temp F | wind direction | speed MPH | gust MPH | rain 1hr in | rain 24hr in | rain mn in | humidity % | barometer mb |
| 20260831203052 | 61 | 53 | 3.0 | 11.0 | 0.00 | 0.31 | 0.04 | 81 | 1011.8 |
| 20260831201549 | 61 | 46 | 3.0 | 6.0 | 0.00 | 0.31 | 0.04 | 80 | 1011.5 |
| 20260831200048 | 62 | 132 | 2.0 | 9.0 | 0.00 | 0.31 | 0.04 | 79 | 1011.4 |
| 20260831194641 | 63 | 165 | 2.0 | 6.0 | 0.00 | 0.31 | 0.04 | 79 | 1011.0 |
| 20260831193038 | 62 | 135 | 2.0 | 7.0 | 0.00 | 0.31 | 0.04 | 81 | 1010.9 |
| 20260831191535 | 63 | 66 | 1.0 | 9.0 | 0.00 | 0.31 | 0.04 | 77 | 1010.8 |
| 20260831190044 | 64 | 169 | 4.0 | 8.0 | 0.00 | 0.31 | 0.04 | 76 | 1010.6 |
| 20260831184529 | 63 | 167 | 3.0 | 6.0 | 0.00 | 0.31 | 0.04 | 80 | 1010.6 |
| 20260831183036 | 63 | 44 | 2.0 | 6.0 | 0.00 | 0.31 | 0.04 | 79 | 1010.4 |
| 20260831181524 | 63 | 212 | 3.0 | 9.0 | 0.00 | 0.31 | 0.04 | 79 | 1010.1 |
| 20260831180021 | 63 | 202 | 1.0 | 7.0 | 0.00 | 0.31 | 0.04 | 78 | 1010.0 |
| 20260831174522 | 64 | 61 | 5.0 | 10.0 | 0.00 | 0.31 | 0.04 | 74 | 1009.9 |
| 20260831173016 | 65 | 57 | 3.0 | 7.0 | 0.00 | 0.31 | 0.04 | 77 | 1009.5 |
| 20260831171516 | 64 | 119 | 3.0 | 10.0 | 0.00 | 0.31 | 0.04 | 78 | 1009.6 |
| 20260831170012 | 64 | 205 | 2.0 | 8.0 | 0.00 | 0.31 | 0.04 | 77 | 1009.4 |
| 20260831164510 | 65 | 161 | 10.0 | 17.0 | 0.00 | 0.31 | 0.04 | 73 | 1009.1 |
| 20260831163030 | 65 | 151 | 2.0 | 8.0 | 0.00 | 0.31 | 0.04 | 74 | 1009.1 |
| 20260831161512 | 66 | 175 | 3.0 | 11.0 | 0.00 | 0.31 | 0.04 | 77 | 1009.0 |
| 20260831160008 | 65 | 136 | 3.0 | 11.0 | 0.00 | 0.31 | 0.04 | 76 | 1009.1 |
| 20260831154504 | 66 | 174 | 4.0 | 10.0 | 0.00 | 0.31 | 0.04 | 76 | 1009.2 |
| 20260831153002 | 66 | 94 | 3.0 | 12.0 | 0.00 | 0.31 | 0.04 | 77 | 1009.0 |
| 20260831151503 | 66 | 225 | 2.0 | 9.0 | 0.00 | 0.31 | 0.04 | 75 | 1009.0 |
| 20260831150058 | 66 | 68 | 5.0 | 14.0 | 0.00 | 0.31 | 0.04 | 75 | 1009.0 |
| 20260831144555 | 66 | 79 | 6.0 | 16.0 | 0.00 | 0.31 | 0.04 | 76 | 1008.7 |
| 20260831143100 | 67 | 40 | 4.0 | 8.0 | 0.00 | 0.31 | 0.04 | 76 | 1008.6 |
| 20260831141548 | 65 | 56 | 7.0 | 18.0 | 0.00 | 0.31 | 0.04 | 76 | 1008.7 |
| 20260831140044 | 65 | 48 | 8.0 | 19.0 | 0.00 | 0.31 | 0.04 | 78 | 1008.6 |
| 20260831134541 | 64 | 63 | 6.0 | 15.0 | 0.00 | 0.31 | 0.04 | 79 | 1008.6 |
| 20260831133040 | 64 | 69 | 7.0 | 13.0 | 0.00 | 0.31 | 0.04 | 82 | 1008.3 |
| 20260831131542 | 63 | 28 | 8.0 | 17.0 | 0.00 | 0.31 | 0.04 | 82 | 1008.2 |
| 20260831130037 | 64 | 88 | 4.0 | 10.0 | 0.00 | 0.31 | 0.04 | 85 | 1008.1 |
| 20260831124531 | 62 | 78 | 10.0 | 18.0 | 0.00 | 0.31 | 0.04 | 88 | 1007.9 |
| 20260831123023 | 61 | 65 | 2.0 | 10.0 | 0.00 | 0.31 | 0.04 | 94 | 1007.8 |
| 20260831121520 | 61 | 76 | 3.0 | 4.0 | 0.00 | 0.31 | 0.04 | 95 | 1007.7 |
| 20260831120015 | 60 | 53 | 0.0 | 4.0 | 0.01 | 0.31 | 0.04 | 95 | 1007.6 |
| 20260831114512 | 59 | 240 | 0.0 | 2.0 | 0.02 | 0.31 | 0.04 | 95 | 1007.6 |
| 20260831113010 | 58 | 240 | 0.0 | 2.0 | 0.02 | 0.31 | 0.04 | 95 | 1007.5 |
| 20260831111514 | 57 | 240 | 0.0 | 4.0 | 0.02 | 0.31 | 0.04 | 95 | 1007.5 |
| 20260831110006 | 57 | 355 | 1.0 | 2.0 | 0.01 | 0.30 | 0.03 | 95 | 1007.5 |
| 20260831104505 | 57 | 331 | 2.0 | 3.0 | 0.00 | 0.28 | 0.02 | 95 | 1007.3 |
| 20260831103002 | 57 | 329 | 0.0 | 1.0 | 0.00 | 0.28 | 0.02 | 95 | 1007.3 |
| 20260831101603 | 57 | 329 | 0.0 | 2.0 | 0.00 | 0.28 | 0.02 | 95 | 1007.1 |
| 20260831100057 | 57 | 44 | 1.0 | 3.0 | 0.00 | 0.28 | 0.02 | 95 | 1007.2 |
| 20260831094559 | 56 | 44 | 0.0 | 5.0 | 0.00 | 0.28 | 0.02 | 95 | 1007.0 |
| 20260831093154 | 56 | 58 | 3.0 | 4.0 | 0.00 | 0.28 | 0.02 | 95 | 1006.7 |
| 20260831091551 | 56 | 161 | 0.0 | 0.0 | 0.00 | 0.28 | 0.02 | 94 | 1006.9 |
| 20260831090056 | 56 | 161 | 0.0 | 0.0 | 0.00 | 0.28 | 0.02 | 94 | 1006.3 |
| 20260831084547 | 56 | 165 | 0.0 | 0.0 | 0.00 | 0.28 | 0.02 | 95 | 1006.5 |
| 20260831083045 | 56 | 165 | 0.0 | 0.0 | 0.00 | 0.28 | 0.02 | 94 | 1006.6 |
| 20260831081542 | 56 | 77 | 0.0 | 0.0 | 0.00 | 0.28 | 0.02 | 94 | 1006.5 |
| 20260831080040 | 56 | 76 | 0.0 | 0.0 | 0.01 | 0.28 | 0.02 | 94 | 1006.7 |
| 20260831074536 | 56 | 76 | 0.0 | 0.0 | 0.01 | 0.28 | 0.02 | 94 | 1006.8 |
| 20260831073034 | 56 | 76 | 0.0 | 1.0 | 0.01 | 0.28 | 0.02 | 94 | 1006.7 |
| 20260831071540 | 56 | 76 | 0.0 | 2.0 | 0.01 | 0.28 | 0.02 | 94 | 1007.2 |
| 20260831070030 | 56 | 76 | 1.0 | 3.0 | 0.00 | 0.28 | 0.02 | 94 | 1007.3 |
| 20260831064525 | 57 | 76 | 0.0 | 1.0 | 0.00 | 0.28 | 0.02 | 94 | 1007.4 |
| 20260831063023 | 57 | 76 | 0.0 | 0.0 | 0.00 | 0.28 | 0.02 | 94 | 1007.3 |
| 20260831061518 | 57 | 76 | 1.0 | 2.0 | 0.00 | 0.28 | 0.02 | 94 | 1007.5 |
| 20260831060015 | 57 | 77 | 0.0 | 1.0 | 0.01 | 0.28 | 0.02 | 94 | 1007.8 |
| 20260831054513 | 57 | 77 | 0.0 | 1.0 | 0.01 | 0.28 | 0.02 | 94 | 1007.8 |
| 20260831053023 | 57 | 77 | 0.0 | 2.0 | 0.01 | 0.28 | 0.02 | 94 | 1007.8 |
| 20260831051509 | 57 | 76 | 1.0 | 4.0 | 0.02 | 0.28 | 0.02 | 94 | 1007.8 |
| 20260831050019 | 57 | 190 | 0.0 | 3.0 | 0.01 | 0.28 | 0.01 | 94 | 1007.8 |
| 20260831044504 | 57 | 189 | 0.0 | 2.0 | 0.01 | 0.28 | 0.01 | 94 | 1007.6 |
| 20260831043100 | 57 | 189 | 0.0 | 1.0 | 0.01 | 0.28 | 0.01 | 94 | 1007.9 |
| 20260831041600 | 57 | 189 | 0.0 | 1.0 | 0.00 | 0.27 | 0.00 | 93 | 1008.1 |
| 20260831040055 | 58 | 189 | 0.0 | 1.0 | 0.00 | 0.27 | 0.00 | 93 | 1008.1 |
| 20260831034554 | 58 | 189 | 0.0 | 1.0 | 0.01 | 0.27 | 0.00 | 93 | 1008.1 |
| 20260831033049 | 58 | 189 | 0.0 | 2.0 | 0.02 | 0.27 | 0.00 | 93 | 1008.3 |
| 20260831031547 | 58 | 189 | 0.0 | 2.0 | 0.13 | 0.27 | 0.00 | 93 | 1008.5 |
| 20260831030043 | 59 | 185 | 0.0 | 2.0 | 0.18 | 0.27 | 0.00 | 93 | 1008.6 |
| 20260831024539 | 59 | 171 | 1.0 | 3.0 | 0.17 | 0.26 | 0.26 | 93 | 1008.8 |
| 20260831023037 | 59 | 46 | 1.0 | 10.0 | 0.17 | 0.25 | 0.25 | 94 | 1009.3 |
| 20260831021535 | 58 | 334 | 0.0 | 2.0 | 0.06 | 0.14 | 0.14 | 94 | 1009.3 |
| 20260831020033 | 58 | 334 | 0.0 | 2.0 | 0.00 | 0.09 | 0.09 | 93 | 1009.0 |
| 20260831014531 | 59 | 334 | 0.0 | 0.0 | 0.00 | 0.09 | 0.09 | 93 | 1009.2 |
| 20260831013028 | 59 | 334 | 0.0 | 1.0 | 0.00 | 0.09 | 0.09 | 93 | 1009.3 |
| 20260831011534 | 59 | 334 | 1.0 | 2.0 | 0.00 | 0.09 | 0.09 | 93 | 1009.4 |
| 20260831010021 | 59 | 334 | 0.0 | 0.0 | 0.00 | 0.09 | 0.09 | 93 | 1009.7 |
| 20260831004518 | 59 | 334 | 0.0 | 1.0 | 0.00 | 0.09 | 0.09 | 92 | 1009.8 |
| 20260831003023 | 59 | 334 | 0.0 | 1.0 | 0.00 | 0.09 | 0.09 | 92 | 1009.7 |
| 20260831001516 | 59 | 334 | 0.0 | 1.0 | 0.00 | 0.09 | 0.09 | 92 | 1009.8 |
| 20260831000013 | 59 | 334 | 0.0 | 2.0 | 0.00 | 0.09 | 0.09 | 92 | 1009.8 |
| 20260830234511 | 60 | 334 | 0.0 | 1.0 | 0.00 | 0.09 | 0.09 | 91 | 1010.1 |
| 20260830233009 | 60 | 335 | 1.0 | 3.0 | 0.00 | 0.09 | 0.09 | 91 | 1009.9 |
| 20260830231508 | 61 | 273 | 0.0 | 2.0 | 0.00 | 0.09 | 0.09 | 91 | 1009.8 |
| 20260830230006 | 61 | 273 | 0.0 | 1.0 | 0.00 | 0.09 | 0.09 | 91 | 1009.8 |
| 20260830224505 | 61 | 273 | 0.0 | 0.0 | 0.02 | 0.09 | 0.09 | 91 | 1009.8 |
| 20260830223002 | 62 | 273 | 0.0 | 2.0 | 0.04 | 0.09 | 0.09 | 90 | 1009.9 |
| 20260830221501 | 62 | 273 | 0.0 | 2.0 | 0.08 | 0.09 | 0.09 | 90 | 1010.0 |
| 20260830214617 | 62 | 273 | 1.0 | 4.0 | 0.07 | 0.07 | 0.07 | 88 | 1010.2 |
| 20260830213055 | 64 | 243 | 0.0 | 4.0 | 0.05 | 0.05 | 0.05 | 86 | 1010.3 |
| 20260830211554 | 65 | 188 | 0.0 | 2.0 | 0.01 | 0.01 | 0.01 | 83 | 1010.2 |
| 20260830210100 | 66 | 188 | 0.0 | 2.0 | 0.00 | 0.00 | 0.00 | 83 | 1009.9 |
| 20260830204559 | 67 | 188 | 0.0 | 2.0 | 0.00 | 0.00 | 0.00 | 81 | 1009.8 |